Location: Unspecified
(0.0000°N, 0.0000°E)
Time: 19:35:24
(UTC+00:00)

SCD-1 - Visible Passes

Search period start: 18 May 2026 00:00
Search period end: 28 May 2026 00:00
Orbit: 709 x 768 km, 25.0° (Epoch: 18 May)

Date Brightness Start Highest point End Pass type
(mag) Time Alt. Az. Time Alt. Az. Time Alt. Az.
18 May 10.6 20:25:05 10° NNW 20:26:48 18° NNW 20:26:48 18° NNW visible
19 May 10.1 19:35:23 10° NNW 19:39:09 20° NNE 19:39:45 20° NNE visible
20 May 10.5 18:45:50 10° NNW 18:48:56 16° NNE 18:52:02 10° ENE visible
20 May 10.4 20:30:08 10° NW 20:32:14 24° NW 20:32:14 24° NW visible
21 May 9.0 19:40:10 10° NW 19:45:06 42° NNE 19:45:13 42° NNE visible
22 May 9.5 18:50:17 10° NW 18:54:57 32° NNE 18:58:15 17° E visible
22 May 10.5 20:35:52 10° WNW 20:37:45 22° WNW 20:37:45 22° WNW visible
23 May 10.6 05:33:17 10° SSW 05:36:27 16° SSE 05:39:39 10° ESE visible
23 May 8.3 19:45:39 10° WNW 19:50:47 84° WSW 19:50:47 84° WSW visible
24 May 10.6 04:44:06 10° S 04:46:12 12° SSE 04:48:17 10° SE visible
24 May 8.4 18:55:31 10° WNW 19:00:48 72° NNE 19:03:50 25° ESE visible
24 May 11.0 20:42:23 10° W 20:43:21 14° WSW 20:43:21 14° WSW visible
25 May 9.3 19:51:52 10° W 19:56:24 37° SW 19:56:24 37° SW visible
26 May 10.0 04:49:01 14° SSW 04:52:16 24° SSE 04:56:30 10° ESE visible
26 May 8.9 19:01:27 10° WNW 19:06:35 50° SSW 19:09:28 24° SE visible
27 May 10.2 04:02:04 19° SSE 04:02:05 19° SSE 04:05:42 10° ESE visible
27 May 10.4 19:59:03 10° WSW 20:02:02 18° SSW 20:02:02 18° SSW visible
